Location: ????????
(48.4751°N, 37.6926°E)
Time: 02:33:21
(UTC+00:00)

USA 229 - Pass Details

Date: 20 January 2021
Orbit: 964 x 1248 km, 63.4° (Epoch: 23 February)

Event Time Altitude Azimuth Distance (km) Brightness Sun altitude
Rises 16:01:54 0° 316° (NW) 3,903 7.1 -18.3°
Reaches altitude 10° 16:04:39 10° 323° (NW) 2,986 6.4 -18.8°
Maximum altitude 16:11:32 47° 36° (NE) 1,511 4.2 -19.9°
Enters shadow 16:14:26 33° 86° (E) 1,892 4.4 -20.4°
